Location: Anglesey
(53.1800°N, 4.2200°W)
Time: 08:17:37
(UTC+01:00)

Tiangong 2 - Pass Details

Date: 17 October 2017
Orbit: 388 x 392 km, 42.8° (Epoch: 18 October)

Event Time Altitude Azimuth Distance (km) Brightness Sun altitude
Exits shadow 05:41:06 11° 170° (S) 1,348 3.8 -19.6°
Drops below altitude 10° 05:41:33 10° 162° (SSE) 1,419 4.0 -19.5°
Sets 05:44:34 0° 131° (SE) 2,274 5.5 -19.0°
